Main page
METAR-TAF:

METAR-TAF

Airports :

Dasht-e Naz Airport

Sari, Iran

latitude: 36-38-09N, longitude: 53-11-37E, elevation: 11 m

Current weather observation

The report was made 34 minutes ago, at 13:00 UTC
Wind 4 kt from the East/Northeast
Temperature 15°C
Humidity 82%
Pressure 1020 hPa
Visibility: 7000 m
Few clouds at a height of 3000 ft
Scattered clouds at a height of 20000 ft

METAR: OINZ 151300Z 07004KT 7000 FEW030 SCT200 15/12 Q1020

Time: 17:04 (13:34 UTC)


TAF: missing

Weather observations and forecasts of more than 4000 airports (METAR and TAF reports).

The available stations are represented by yellow and red dots on the map.

Hover mouse over dot to see the name of the station.

Then click to see weather observations and forecasts.

To change the map : click on the green buttons with a black cross to zoom in, on the green button with a dash to zoom out, or on the green arrows for adjacent maps.


METAR-TAF: